Weather History for Punta Cana, Dominican Republic

Change the Weather History Date:

Tuesday, December 24, 2013

  Actual Average Record
Temperature  
Mean Temperature 75 °F -  
Max Temperature 82 °F 81 °F 87 °F (2005)
Min Temperature 68 °F 72 °F 60 °F (2008)
Cooling Degree Days 10    
Growing Degree Days 25 (Base 50)    
Moisture  
Dew Point 68 °F    
Average Humidity 83    
Maximum Humidity 100    
Minimum Humidity 4    
Precipitation  
Precipitation 0.00 in - - ()
Sea Level Pressure  
Sea Level Pressure 29.96 in    
Wind  
Wind Speed 6 mph ()    
Max Wind Speed 12 mph    
Max Gust Speed -    
Visibility 6.4 miles    
Events Thunderstorm    
Averages and records for this station are not official NWS values.
T = Trace of Precipitation, MM = Missing Value Source: Averaged Metar Reports

Daily Weather History Graph

Daily Weather History Graph

Search for Another Location

Airport:

Trip Planner

Search our weather history database for the weather conditions in past years. The results will help you decide how hot, cold, wet, or windy it might be!

Date:

Astronomy

Dec. 24, 2013 Rise Set
Actual Time 7:02 AM AST 6:03 PM AST
Civil Twilight 6:38 AM AST 6:27 PM AST
Nautical Twilight 6:11 AM AST 6:54 PM AST
Astronomical Twilight 5:44 AM AST 7:21 PM AST
Moon No Moon Rise 11:46 AM AST (12/24)
Length of Visible Light 11h 48m
Length of Day
11h 01m
Waning Gibbous, 59% of the Moon is Illuminated
Dec 24
Waning Gibbous
Dec 25
Last Quarter
Jan 1
New
Jan 7
First Quarter
Jan 16
Full

Hourly Weather History & Observations

Time (AST) Temp. Dew Point Humidity Pressure Visibility Wind Dir Wind Speed Gust Speed Precip Events Conditions
12:00 AM 77.0 °F 69.8 °F 78% 30.01 in 6.2 mi North - - N/A Thunderstorm Thunderstorm
1:00 AM 77.0 °F 69.8 °F 78% 30.01 in 6.2 mi East 6.9 mph - N/A Thunderstorm Thunderstorm
2:00 AM 77.0 °F 73.4 °F 89% 29.98 in 5.0 mi East 4.6 mph - N/A Thunderstorm Thunderstorm
3:00 AM 75.2 °F 71.6 °F 89% 29.98 in 6.2 mi Calm Calm - N/A Thunderstorm Light Thunderstorm
4:00 AM 75.2 °F 69.8 °F 83% 29.95 in 6.2 mi ENE 4.6 mph - N/A Thunderstorm Thunderstorm
5:00 AM 71.6 °F 68.0 °F 88% 29.95 in 6.2 mi NNE 11.5 mph - N/A Thunderstorm Thunderstorm
6:00 AM 69.8 °F 68.0 °F 94% 29.95 in 6.2 mi North 5.8 mph - N/A Thunderstorm Thunderstorm
7:00 AM 68.0 °F 68.0 °F 100% 29.95 in 6.2 mi North 4.6 mph - N/A Thunderstorm Thunderstorm
8:00 AM 68.0 °F 68.0 °F 100% 29.95 in 6.2 mi NNE 4.6 mph - N/A   Scattered Clouds
9:00 AM 75.2 °F 71.6 °F 89% 30.01 in 6.2 mi East 9.2 mph - N/A   Mostly Cloudy
10:00 AM 75.2 °F 71.6 °F 89% 30.01 in 6.2 mi East 11.5 mph - N/A   Scattered Clouds
11:00 AM 79 °F 72 °F 74% 30.01 in 10 mi East 11.2 mph - -   Partly Cloudy
11:00 AM 78.8 °F 71.6 °F 78% 30.01 in 6.2 mi East 11.5 mph - N/A   Scattered Clouds
12:00 PM 78.8 °F 71.6 °F 78% 29.98 in 6.2 mi ENE 11.5 mph - N/A   Mostly Cloudy
1:00 PM 78.8 °F 71.6 °F 78% 29.95 in 6.2 mi East 5.8 mph - N/A   Mostly Cloudy
2:00 PM 78.8 °F 73.4 °F 83% 29.95 in 6.2 mi East 9.2 mph - N/A   Mostly Cloudy
3:00 PM 78.8 °F 73.4 °F 83% 29.92 in 6.2 mi East 11.5 mph - N/A Thunderstorm Light Thunderstorm
4:00 PM 78.8 °F 69.8 °F 74% 29.92 in 6.2 mi East 11.5 mph - N/A Thunderstorm Light Thunderstorm
5:00 PM 77.0 °F -7.6 °F 4% 29.92 in 6.2 mi East 6.9 mph - N/A Thunderstorm Light Thunderstorm
6:00 PM 77.0 °F 71.6 °F 83% 29.89 in 6.2 mi NE 4.6 mph - N/A   Scattered Clouds
7:00 PM 73.4 °F 71.6 °F 94% 29.92 in 6.2 mi NE 4.6 mph - N/A   Scattered Clouds
8:00 PM 73 °F 70 °F 89% 29.94 in 10 mi NNE 6.7 mph - -   Partly Cloudy
8:00 PM 73.4 °F 69.8 °F 88% 29.92 in 6.2 mi NNE 6.9 mph - N/A   Scattered Clouds
9:00 PM 71.6 °F 69.8 °F 94% 29.95 in 6.2 mi North 4.6 mph - N/A   Scattered Clouds
10:00 PM 71.6 °F 69.8 °F 94% 29.95 in 6.2 mi NNE 4.6 mph - N/A   Scattered Clouds
11:00 PM - - N/A% 29.95 in 6.2 mi North 9.2 mph - N/A   Mostly Cloudy